Dewpoint
72 73 71 71 57 53 49 50 54 53 55 56 56 55 56 59 55 52 64 67 69 71 70 70 72 73 73 72 73 73 73 72 72 73 73 73 73 73 72 72 72 71 71 71 71 71 70 72 72
73 72 71 66 52 46 48 51 53 54 56 57 57 57 57 57 62 61 63 68 70 70 72 70 73 73 72 72 73 73 73 73 73 73 73 73 72 72 72 72 72 72 72 72 72 72 72 71 72
72 72 65 59 51 47 48 51 53 55 56 55 56 59 58 59 62 62 65 70 72 71 71 71 73 73 72 72 73 73 73 73 73 73 73 72 72 72 72 71 72 72 72 72 72 71 70 71 71
70 67 64 55 49 51 51 51 54 53 54 56 56 55 58 61 60 66 70 72 71 70 70 72 73 73 72 73 73 72 73 73 72 72 73 73 73 72 72 72 71 70 71 70 71 71 71 70 70
64 61 53 49 50 51 51 52 53 52 54 55 56 54 58 62 66 69 71 70 70 72 70 71 73 73 72 73 73 73 73 73 72 73 73 73 72 70 70 70 71 71 70 70 70 70 69 69 70
59 60 48 48 51 52 53 54 55 55 55 54 55 56 60 64 66 68 63 59 62 69 71 71 72 72 73 73 72 73 73 73 72 72 73 72 72 72 70 70 70 70 70 70 70 70 69 69 70
56 55 51 51 51 52 53 55 53 53 52 52 55 55 61 64 66 67 66 67 66 71 71 71 69 71 73 73 72 73 73 73 73 73 73 73 72 72 72 71 71 71 72 70 69 69 69 69 70
60 57 51 51 51 51 54 54 54 53 52 54 53 53 57 60 66 67 69 65 70 69 70 72 70 69 69 70 73 73 73 73 73 73 72 72 73 72 72 73 72 71 71 71 71 70 70 71 70
62 51 48 49 52 54 54 51 58 55 53 55 57 52 55 60 66 67 67 66 69 68 70 70 71 70 71 72 71 72 73 72 72 72 72 71 69 71 70 71 72 72 71 70 71 70 70 71 70
55 51 51 54 54 55 54 55 57 52 55 55 53 53 59 63 66 66 65 64 66 66 69 70 71 68 69 70 73 73 72 71 72 72 72 71 70 70 70 71 71 72 72 72 71 71 71 72 70
54 52 54 55 56 56 54 57 56 51 53 53 51 53 58 64 62 65 65 64 65 66 67 70 70 70 69 70 71 71 71 71 70 71 70 69 69 70 71 71 71 71 72 72 71 71 71 71 70
54 55 55 56 57 55 55 57 53 51 55 54 54 56 61 62 62 63 64 65 64 66 67 69 68 69 70 70 70 70 68 68 67 68 70 69 69 71 72 72 72 71 71 71 71 70 67 68 71
51 53 56 55 55 56 57 55 52 54 58 54 58 59 61 62 63 63 63 63 64 64 65 66 67 69 70 70 69 70 69 67 66 67 68 69 70 71 72 72 72 73 72 72 70 70 70 69 69
51 49 53 54 55 55 55 56 55 58 58 55 57 59 61 62 63 64 64 64 65 64 63 64 65 67 69 69 70 70 69 69 68 68 69 71 70 71 71 72 71 71 72 72 70 69 70 69 69
51 46 50 53 55 53 55 55 55 58 57 55 55 58 60 61 63 63 64 64 64 65 64 64 64 65 68 69 70 69 70 68 69 69 71 72 72 72 72 72 72 72 72 72 70 70 71 70 71
49 46 43 50 53 53 54 51 57 58 56 54 55 58 60 61 62 63 63 63 63 62 63 64 61 64 66 68 69 69 69 70 70 70 71 71 72 72 72 72 72 73 73 72 71 70 70 70 69
48 41 41 44 52 50 50 51 57 57 56 55 57 58 59 61 62 63 62 62 62 62 62 62 63 64 66 68 68 69 69 69 68 69 70 71 72 73 73 72 72 74 72 72 71 71 69 69 67
39 44 48 46 53 51 49 51 57 57 55 55 56 57 58 58 59 61 62 62 61 62 63 63 63 64 67 67 69 68 68 69 68 69 70 72 71 71 71 70 73 72 71 71 70 70 70 68 68
40 41 43 47 50 48 48 50 56 56 54 54 55 56 56 57 56 58 60 60 60 61 61 63 63 64 66 66 66 66 66 67 67 68 71 72 72 72 71 72 73 72 71 70 70 69 69 68 69
39 40 41 47 50 48 50 50 55 56 55 55 55 55 55 55 57 58 58 59 59 60 62 63 64 65 67 66 67 67 67 67 67 69 71 71 71 72 73 73 72 72 71 71 70 69 68 68 69
36 39 42 41 49 49 48 48 52 54 56 56 56 56 56 56 56 57 58 58 58 59 62 63 65 66 67 67 68 68 69 69 68 69 69 70 71 72 74 74 73 72 72 71 71 71 69 67 69
33 39 42 47 45 41 48 37 49 52 53 54 54 55 55 55 57 57 57 58 58 59 61 63 65 66 67 69 67 68 66 64 66 69 69 69 72 72 73 74 73 72 72 72 71 71 70 70 67
42 40 45 46 44 43 45 40 44 52 51 52 53 53 54 54 53 53 53 54 56 58 61 62 65 66 66 68 68 68 67 65 68 70 70 72 72 73 73 74 74 73 71 72 72 72 71 70 68
45 44 43 41 40 38 39 40 38 48 49 50 53 53 54 55 55 53 53 56 58 59 61 62 65 66 68 69 69 69 67 66 66 68 68 69 70 72 74 74 74 73 71 72 72 72 73 72 71
39 33 32 33 35 33 41 39 39 44 50 52 53 54 54 56 57 56 53 55 58 59 61 62 65 66 67 67 68 68 68 68 68 68 68 69 69 70 72 74 74 72 72 72 72 73 72 72 70
39 28 19 17 21 30 42 38 39 45 49 52 52 54 56 59 57 55 55 55 58 59 61 62 64 65 66 67 67 69 69 67 67 68 68 68 69 70 72 73 74 73 73 72 73 71 70 70 70
28 22 28 34 38 35 37 40 42 46 48 51 52 55 56 57 58 58 58 56 57 58 61 62 63 65 66 65 67 69 69 68 67 70 71 69 71 71 73 73 74 73 72 72 72 70 71 71 70
20 32 26 33 29 27 34 37 35 44 51 54 55 55 55 56 57 57 58 58 56 56 58 62 63 64 65 65 67 67 68 69 69 70 70 70 71 73 73 73 73 74 73 72 72 70 71 71 70
22 18 30 33 34 24 24 31 46 48 53 54 54 57 58 58 57 56 56 58 59 57 56 59 61 63 65 65 66 67 67 67 69 69 70 70 71 73 73 74 74 74 73 73 73 72 71 71 71
12 18 23 13 28 33 34 34 52 52 52 54 55 58 59 61 64 66 67 66 60 58 58 59 60 62 65 66 67 67 67 68 66 68 69 70 71 72 73 73 73 73 73 74 74 72 71 71 71
Wind_Speed
9 7 2 1 2 2 5 5 4 12 8 0 11 3 8 7 4 6 7 7 10 8 9 10 11 11 14 14 14 15 15 17 16 15 16 16 16 12 14 12 11 13 14 14 13 13 13 12 13
8 4 3 1 3 7 4 2 11 5 8 15 12 8 7 4 4 13 12 7 11 10 9 10 11 12 15 13 14 15 15 15 15 15 14 15 15 12 12 13 13 13 13 12 14 13 12 11 12
7 5 2 2 3 5 4 4 10 13 8 6 5 9 4 3 10 14 7 10 11 11 10 10 10 12 14 13 14 15 15 14 14 15 14 12 12 11 11 13 13 12 11 12 12 11 11 10 10
3 0 1 3 9 3 2 11 17 14 8 7 11 9 5 8 8 8 12 11 12 12 11 12 10 12 12 11 14 14 14 15 14 13 13 12 10 10 10 12 12 11 10 10 10 10 9 9 8
1 1 2 5 7 4 8 13 7 5 6 7 4 7 10 6 12 15 13 15 11 10 9 10 9 11 12 10 10 13 11 13 11 11 12 10 9 9 7 8 10 10 10 9 8 8 7 7 6
0 1 4 4 6 7 6 4 5 7 8 10 16 15 5 9 18 14 14 13 11 8 7 9 8 8 11 10 10 11 9 8 8 8 8 8 5 8 6 6 6 7 8 9 7 7 6 5 5
0 2 3 6 8 5 3 4 5 8 11 11 14 10 9 15 14 14 14 12 10 11 8 8 8 8 9 9 9 9 8 8 6 5 6 7 4 4 3 4 3 4 4 6 6 6 5 4 4
1 1 3 3 5 5 4 4 12 9 11 13 17 9 16 22 17 14 10 13 11 11 10 8 8 7 6 9 7 8 7 6 4 5 4 4 3 2 1 0 2 1 2 3 3 3 4 3 3
0 3 7 4 1 5 8 8 4 6 13 4 3 20 23 25 20 16 13 13 11 10 8 7 6 7 7 6 7 7 7 4 3 3 3 2 1 2 2 3 4 3 2 3 3 3 2 2 2
1 6 5 5 4 5 9 8 7 9 7 10 20 21 25 22 18 17 15 15 14 12 10 9 7 8 6 6 4 5 4 3 2 1 1 2 3 4 6 8 7 3 7 10 4 4 4 3 2
3 3 1 10 6 13 14 6 6 16 4 12 30 33 29 22 17 16 17 15 15 13 12 11 9 7 8 5 5 4 4 2 2 3 1 3 5 5 6 6 5 4 3 3 6 5 4 4 2
6 8 5 7 8 9 10 9 8 12 1 17 23 29 28 25 23 18 18 16 14 12 11 10 11 9 7 6 6 5 4 3 4 3 3 4 6 6 6 5 2 3 5 3 8 5 5 3 3
7 7 6 9 11 10 10 6 6 7 5 23 24 27 26 22 19 16 15 14 13 13 13 13 11 10 9 8 5 4 3 5 5 4 4 6 7 8 6 6 3 2 5 5 4 5 4 5 5
3 7 9 12 11 9 10 9 11 6 15 24 25 25 23 22 21 15 15 15 15 13 13 13 12 11 10 9 7 4 5 5 5 5 6 8 8 8 7 4 5 3 1 5 4 3 3 5 5
5 3 9 10 4 6 8 6 1 17 17 21 22 21 19 20 18 18 15 14 15 14 12 14 11 11 10 7 6 7 5 5 6 7 8 9 9 7 5 4 4 4 3 3 3 4 3 3 3
7 5 4 2 5 4 3 3 7 16 20 20 16 15 18 20 19 15 15 14 14 13 14 12 10 10 10 9 7 7 5 5 7 6 8 8 8 4 4 6 2 3 3 3 5 5 5 4 5
5 2 5 4 3 6 2 3 10 16 15 18 17 15 15 15 18 18 16 15 14 15 15 15 13 13 12 10 7 5 6 5 5 6 5 4 4 3 2 3 5 2 3 4 5 5 5 5 5
6 2 4 4 2 3 8 4 12 16 17 18 17 16 16 18 21 19 18 16 15 15 15 15 14 16 12 7 5 6 5 6 6 6 5 2 1 2 2 1 2 6 5 6 7 7 5 4 4
8 10 6 2 5 3 6 8 16 18 15 16 17 19 18 18 16 14 16 16 16 16 16 16 15 14 11 9 7 7 8 6 7 7 6 3 3 2 1 1 2 3 5 6 8 8 7 5 4
10 11 10 2 5 2 4 5 13 19 20 20 18 17 19 20 17 15 16 17 18 19 19 17 17 14 13 10 5 4 4 5 8 6 5 4 4 2 2 2 3 3 5 6 7 7 7 4 5
7 13 9 5 6 4 4 4 12 14 14 15 16 18 19 20 19 19 17 19 19 20 21 20 18 17 14 11 6 5 3 3 5 6 5 4 5 5 4 3 3 4 3 4 5 6 6 6 6
3 7 9 12 11 4 1 2 7 16 18 19 22 22 21 22 21 19 19 20 22 25 19 18 17 18 15 13 11 11 10 9 7 4 2 3 5 5 4 4 4 4 3 4 5 6 4 5 7
3 10 14 11 5 2 3 3 2 10 20 24 24 21 20 18 19 19 20 22 24 20 20 18 15 16 15 15 14 13 13 10 6 3 2 4 5 5 5 5 4 5 5 5 5 7 6 4 3
16 18 13 4 1 4 2 3 2 8 13 17 19 21 20 18 14 13 15 15 17 16 16 16 17 18 18 17 16 16 14 12 9 7 5 3 3 5 7 7 6 5 6 7 6 4 4 4 4
2 5 4 1 1 2 1 3 6 6 4 4 9 13 18 16 16 13 15 16 16 17 17 15 16 18 18 18 17 18 16 12 12 10 6 5 5 7 8 8 8 7 7 6 6 7 5 7 6
15 5 2 3 3 3 3 4 1 3 6 6 5 5 7 12 17 17 13 14 17 19 18 18 17 18 19 18 19 16 15 14 12 11 8 7 6 5 5 8 8 8 7 7 7 6 8 7 6
8 5 2 8 1 3 2 3 7 8 11 7 8 8 4 7 9 10 11 11 15 18 21 21 20 19 17 19 16 16 16 16 13 11 8 8 6 5 6 8 9 9 8 9 8 8 8 7 7
3 11 4 3 2 3 3 4 0 6 13 12 9 9 8 5 4 3 6 13 14 18 17 18 19 19 19 19 18 18 17 17 16 13 13 11 8 7 6 9 9 10 10 10 10 10 9 8 8
6 4 6 5 0 2 1 2 3 3 11 11 12 9 6 3 1 4 7 10 13 13 15 16 18 18 18 19 17 16 17 17 15 15 15 14 11 8 8 9 10 9 10 12 12 12 10 10 10
1 2 4 6 5 1 1 3 2 4 5 6 7 5 5 4 4 7 9 8 10 14 15 19 17 19 20 18 16 18 15 15 16 17 15 12 13 12 11 9 9 10 10 12 16 15 14 14 14
Wind_Direction
161 144 176 250 47 50 53 63 91 124 132 295 142 126 113 52 41 128 144 147 139 124 131 122 113 118 127 127 125 124 122 119 116 113 110 107 103 105 103 100 99 99 93 102 100 100 99 97 94
150 158 246 333 67 83 67 86 118 107 115 111 82 93 59 74 75 131 137 151 133 135 133 125 124 121 117 128 131 125 125 121 123 117 112 109 104 99 97 99 90 93 93 93 92 94 94 100 100
167 268 327 50 61 72 101 108 115 113 121 125 96 59 58 72 113 136 137 145 131 131 132 126 131 123 125 131 132 126 125 122 116 111 111 107 104 98 94 102 100 92 94 96 97 98 98 97 101
220 315 180 61 69 46 69 119 125 125 100 70 110 73 77 130 123 139 137 145 137 131 143 131 135 129 124 122 127 122 129 117 111 109 105 99 95 97 103 98 98 100 99 97 95 99 100 103 100
32 68 63 85 68 54 101 125 128 113 108 113 115 106 104 124 122 128 151 145 137 133 145 137 133 133 125 130 124 124 123 120 120 115 111 100 104 95 89 93 98 98 94 92 94 93 95 95 91
214 257 72 98 100 103 100 94 106 102 119 119 115 116 96 137 140 140 150 137 134 153 151 140 147 138 130 122 125 120 126 119 121 114 104 107 112 93 93 97 98 100 105 102 94 93 90 86 78
302 73 90 108 118 126 110 79 85 108 116 116 131 113 126 151 152 150 152 139 163 176 154 153 160 149 129 133 134 124 127 136 131 114 114 99 83 84 110 112 104 104 105 112 117 111 101 86 68
173 60 102 80 155 105 135 96 113 106 96 131 135 142 153 165 157 152 151 164 181 168 166 174 161 155 154 151 138 132 132 123 114 109 95 92 109 150 137 315 167 166 134 131 132 138 129 106 60
141 79 64 40 327 129 152 125 58 98 129 97 96 142 148 155 154 154 167 177 183 174 180 174 176 178 164 159 156 149 142 133 163 156 96 168 270 280 273 305 250 258 245 213 197 201 187 126 94
91 74 57 8 293 159 143 131 119 140 125 95 111 125 143 153 163 153 174 184 190 187 193 201 195 193 170 178 154 155 144 165 174 182 111 292 293 291 297 287 298 18 321 313 275 212 216 157 120
54 96 219 11 57 144 146 122 112 152 147 163 151 151 156 160 166 175 181 189 192 194 199 199 195 197 192 187 180 181 172 195 215 244 301 290 290 296 287 284 290 342 272 225 251 196 205 151 145
118 64 71 30 90 127 152 133 105 162 203 166 155 155 156 165 173 180 183 188 189 198 204 202 207 201 204 204 199 197 198 211 237 241 266 268 279 281 291 299 350 130 256 212 234 235 198 168 171
132 154 121 79 92 159 149 140 136 204 159 155 148 154 161 170 180 187 186 186 192 201 209 211 209 204 213 213 216 216 221 230 241 253 263 264 274 286 308 320 351 189 225 217 189 207 183 203 196
192 130 157 77 81 122 155 142 127 154 147 157 158 165 171 171 180 180 195 193 194 205 211 213 213 211 216 217 220 232 241 244 256 259 260 264 273 286 306 305 330 332 329 171 184 168 186 216 220
303 104 147 75 53 89 132 138 149 149 151 161 168 171 173 179 192 194 197 199 197 204 208 211 212 210 217 218 228 237 245 255 273 272 263 260 264 273 286 280 314 305 280 197 203 180 179 198 203
342 75 97 42 85 66 121 81 117 154 149 164 181 187 184 180 203 200 201 202 196 203 207 208 208 214 220 223 225 242 262 272 280 286 277 265 255 259 267 306 4 288 241 209 190 173 164 148 133
36 40 323 4 74 129 109 98 158 164 166 167 183 195 200 203 204 207 209 205 203 206 209 208 207 217 217 219 227 248 264 277 286 311 269 243 241 240 265 300 332 143 123 133 151 151 149 136 122
328 224 254 265 71 156 140 134 165 178 171 177 187 197 208 206 216 209 208 212 211 210 213 213 207 215 213 221 221 239 264 269 281 293 255 230 223 259 323 309 334 81 106 115 123 133 125 136 128
272 266 251 176 179 193 200 169 175 187 186 187 201 199 207 222 217 211 214 213 217 219 216 215 214 216 201 206 222 235 246 264 277 269 260 249 233 274 287 79 88 100 97 118 133 133 136 134 145
247 250 259 97 157 269 150 171 185 188 200 193 209 216 219 221 222 234 221 220 216 217 219 218 218 214 208 209 209 216 220 250 265 260 255 220 228 222 214 122 144 150 136 136 138 147 137 127 171
227 213 220 202 155 63 146 183 180 204 211 210 216 227 230 235 231 220 226 227 227 225 219 217 212 210 206 201 182 180 216 254 246 241 247 225 203 201 213 137 152 171 180 165 162 166 166 152 185
242 232 206 163 174 231 251 326 204 193 207 217 218 220 231 234 233 236 228 227 228 230 226 222 213 209 207 192 197 206 215 227 227 249 262 243 201 196 210 159 167 185 190 181 184 192 201 190 171
27 128 159 151 157 191 135 254 182 189 215 217 218 221 226 231 231 228 219 220 225 226 220 217 211 210 204 195 199 203 215 220 226 239 277 240 206 201 206 200 185 195 203 198 208 191 190 184 187
127 111 106 95 176 264 69 277 217 193 227 231 219 219 222 223 230 224 221 218 213 211 218 211 204 205 199 194 199 206 211 218 229 233 227 238 203 209 215 203 201 208 211 201 209 199 195 206 200
160 185 97 81 243 288 131 235 276 266 179 147 187 209 218 224 220 224 211 212 212 206 209 211 206 207 203 201 202 209 213 216 226 235 238 234 237 232 228 212 205 218 220 205 210 205 211 210 216
201 240 261 328 320 333 190 244 93 339 121 139 177 174 190 210 218 217 222 217 216 212 210 208 209 209 204 204 208 208 211 219 226 232 243 248 246 266 244 216 217 222 223 217 216 225 223 221 221
176 198 102 108 125 286 302 283 280 45 114 176 186 176 176 203 200 214 234 236 233 223 211 211 211 212 208 208 207 209 213 217 222 226 234 242 247 264 245 226 216 214 221 228 220 229 228 226 225
218 136 164 99 175 264 272 282 241 35 72 106 122 114 99 112 131 182 248 239 234 235 228 222 216 217 213 210 208 209 212 218 220 220 224 234 246 241 230 225 230 219 219 224 227 237 231 223 231
143 171 72 106 273 267 294 64 196 115 90 87 92 66 68 80 182 264 263 245 237 239 231 224 223 222 216 213 214 212 207 213 221 223 224 225 234 233 240 240 234 233 234 230 226 238 240 229 233
65 146 185 225 205 213 282 104 51 189 82 58 56 57 1 349 314 272 260 249 233 234 224 222 222 224 222 217 219 219 218 212 217 227 230 230 234 226 223 232 241 244 236 236 230 229 233 232 233